When you browse on this site, cookies collect data to enhance your experience and personalize the content and advertising you see.
Visit our Privacy Policy to learn more. By continuing to use the site, you agree to this use of cookies and data.
  • In Spain
  • List of Countries
  • For 7 days
  • Water Temperature
  • Weather Map
  • Weather Widgets
  • user-avatar
    Login

    Hourly Weather Poltevo

    Today, 21 September, Saturday

    Time Temperature Precipitation Wind Pressure Humidity
    00:00 +3°C° 0 mm 2 mps 738 mmHg 92%
    01:00 +3°C° 0 mm 2 mps 739 mmHg 94%
    02:00 +2°C° 0 mm 2 mps 739 mmHg 95%
    03:00 +2°C° 0 mm 2 mps 739 mmHg 95%
    04:00 +2°C° 0 mm 2 mps 739 mmHg 95%
    05:00 +1°C° 0 mm 2 mps 739 mmHg 96%
    06:00 +1°C° 0 mm 3 mps 739 mmHg 92%
    07:00 +2°C° 0 mm 3 mps 740 mmHg 88%
    08:00 +4°C° 0 mm 3 mps 740 mmHg 85%
    09:00 +5°C° 0 mm 3 mps 740 mmHg 78%
    10:00 +6°C° 0 mm 4 mps 740 mmHg 71%
    11:00 +7°C° 0 mm 4 mps 739 mmHg 64%
    12:00 +8°C° 0 mm 4 mps 739 mmHg 61%
    13:00 +8°C° 0 mm 4 mps 739 mmHg 58%
    14:00 +8°C° 0 mm 4 mps 739 mmHg 55%
    15:00 +7°C° 0 mm 4 mps 738 mmHg 59%
    16:00 +8°C° 0 mm 3 mps 738 mmHg 62%
    17:00 +7°C° 0 mm 2 mps 738 mmHg 66%
    18:00 +5°C° 0 mm 3 mps 737 mmHg 68%
    19:00 +5°C° 0 mm 3 mps 737 mmHg 69%
    20:00 +4°C° 0 mm 3 mps 737 mmHg 70%
    21:00 +4°C° 0.2 mm 4 mps 736 mmHg 76%
    22:00 +3°C° 0.2 mm 5 mps 735 mmHg 83%
    23:00 +3°C° 0.2 mm 6 mps 734 mmHg 89%

    Tomorrow, 22 September, Sunday

    Time Temperature Precipitation Wind Pressure Humidity
    00:00 +3°C° 0.5 mm 6 mps 733 mmHg 90%
    01:00 +3°C° 0.5 mm 6 mps 732 mmHg 92%
    02:00 +3°C° 0.5 mm 7 mps 731 mmHg 93%
    03:00 +4°C° 0.7 mm 6 mps 730 mmHg 94%
    04:00 +5°C° 0.7 mm 6 mps 730 mmHg 94%
    05:00 +7°C° 0.7 mm 6 mps 729 mmHg 95%
    06:00 +7°C° 0.5 mm 6 mps 729 mmHg 92%
    07:00 +7°C° 0.5 mm 6 mps 729 mmHg 90%
    08:00 +8°C° 0.5 mm 7 mps 729 mmHg 87%
    09:00 +8°C° 0.2 mm 7 mps 729 mmHg 83%
    10:00 +7°C° 0.2 mm 8 mps 729 mmHg 79%
    11:00 +7°C° 0.2 mm 8 mps 730 mmHg 75%
    12:00 +7°C° 0.2 mm 8 mps 730 mmHg 73%
    13:00 +6°C° 0.2 mm 8 mps 730 mmHg 70%
    14:00 +6°C° 0.2 mm 9 mps 731 mmHg 67%
    15:00 +5°C° 0 mm 8 mps 731 mmHg 68%
    16:00 +5°C° 0 mm 7 mps 732 mmHg 68%
    17:00 +4°C° 0 mm 6 mps 732 mmHg 69%
    18:00 +3°C° 0 mm 6 mps 733 mmHg 71%
    19:00 +2°C° 0 mm 6 mps 734 mmHg 73%
    20:00 +1°C° 0 mm 6 mps 734 mmHg 76%
    21:00 +1°C° 0 mm 5 mps 735 mmHg 78%
    22:00 0°C° 0 mm 5 mps 735 mmHg 80%
    23:00 0°C° 0 mm 5 mps 736 mmHg 82%

    Day after tomorrow, 23 September, Monday

    Time Temperature Precipitation Wind Pressure Humidity
    00:00 0°C° 0 mm 5 mps 737 mmHg 83%
    01:00 -1°C° 0 mm 5 mps 737 mmHg 84%
    02:00 -1°C° 0 mm 5 mps 738 mmHg 86%
    03:00 -1°C° 0 mm 5 mps 738 mmHg 89%
    04:00 -2°C° 0 mm 4 mps 739 mmHg 91%
    05:00 -2°C° 0 mm 4 mps 739 mmHg 94%
    06:00 -1°C° 0 mm 5 mps 740 mmHg 90%
    07:00 0°C° 0 mm 5 mps 740 mmHg 85%
    08:00 0°C° 0 mm 5 mps 740 mmHg 80%
    09:00 +1°C° 0 mm 5 mps 741 mmHg 76%
    10:00 +2°C° 0 mm 5 mps 741 mmHg 71%
    11:00 +3°C° 0 mm 5 mps 741 mmHg 67%
    12:00 +5°C° 0 mm 5 mps 741 mmHg 63%
    13:00 +6°C° 0 mm 5 mps 741 mmHg 60%
    14:00 +7°C° 0 mm 5 mps 741 mmHg 56%
    15:00 +6°C° 0 mm 4 mps 741 mmHg 60%
    16:00 +5°C° 0 mm 4 mps 741 mmHg 64%
    17:00 +4°C° 0 mm 3 mps 741 mmHg 67%
    18:00 +3°C° 0 mm 3 mps 741 mmHg 70%
    19:00 +2°C° 0 mm 3 mps 742 mmHg 73%
    20:00 +1°C° 0 mm 3 mps 742 mmHg 76%
    21:00 +1°C° 0 mm 3 mps 742 mmHg 78%
    22:00 +1°C° 0 mm 3 mps 742 mmHg 79%
    23:00 0°C° 0 mm 3 mps 742 mmHg 81%

    24 September, Tuesday

    Time Temperature Precipitation Wind Pressure Humidity
    00:00 +1°C° 0 mm 2 mps 742 mmHg 83%
    01:00 -1°C° 0 mm 2 mps 742 mmHg 85%
    02:00 -1°C° 0 mm 2 mps 742 mmHg 86%
    03:00 -1°C° 0 mm 2 mps 742 mmHg 87%
    04:00 -1°C° 0 mm 2 mps 742 mmHg 87%
    05:00 -1°C° 0 mm 2 mps 742 mmHg 88%
    06:00 +1°C° 0 mm 2 mps 742 mmHg 83%
    07:00 +2°C° 0 mm 2 mps 742 mmHg 78%
    08:00 +3°C° 0 mm 2 mps 742 mmHg 74%
    09:00 +5°C° 0 mm 2 mps 742 mmHg 70%
    10:00 +6°C° 0 mm 2 mps 742 mmHg 66%
    11:00 +7°C° 0 mm 3 mps 742 mmHg 62%
    12:00 +7°C° 0 mm 3 mps 742 mmHg 62%
    13:00 +7°C° 0 mm 3 mps 742 mmHg 61%
    14:00 +7°C° 0 mm 3 mps 742 mmHg 60%
    15:00 +7°C° 0 mm 3 mps 742 mmHg 62%
    16:00 +6°C° 0 mm 2 mps 741 mmHg 64%
    17:00 +6°C° 0 mm 2 mps 741 mmHg 65%
    18:00 +5°C° 0 mm 2 mps 742 mmHg 65%
    19:00 +5°C° 0 mm 2 mps 742 mmHg 65%
    20:00 +4°C° 0 mm 2 mps 742 mmHg 65%
    21:00 +5°C° 0 mm 1 mps 742 mmHg 65%
    22:00 +5°C° 0 mm 1 mps 742 mmHg 65%
    23:00 +4°C° 0 mm 1 mps 742 mmHg 66%

    25 September, Wednesday

    Time Temperature Precipitation Wind Pressure Humidity
    00:00 +4°C° 0 mm 1 mps 742 mmHg 66%
    01:00 +4°C° 0 mm 1 mps 742 mmHg 66%
    02:00 +4°C° 0 mm 1 mps 742 mmHg 66%
    03:00 +4°C° 0 mm 1 mps 742 mmHg 66%
    04:00 +4°C° 0 mm 1 mps 742 mmHg 67%
    05:00 +3°C° 0 mm 1 mps 742 mmHg 68%
    06:00 +4°C° 0 mm 1 mps 742 mmHg 64%
    07:00 +5°C° 0 mm 1 mps 742 mmHg 61%
    08:00 +6°C° 0 mm 1 mps 742 mmHg 58%
    09:00 +6°C° 0 mm 1 mps 743 mmHg 56%
    10:00 +7°C° 0 mm 1 mps 743 mmHg 53%
    11:00 +8°C° 0 mm 1 mps 743 mmHg 50%
    12:00 +7°C° 0 mm 0 mps 743 mmHg 50%
    13:00 +7°C° 0 mm 0 mps 743 mmHg 49%
    14:00 +8°C° 0 mm 0 mps 743 mmHg 49%
    15:00 +7°C° 0 mm 0 mps 742 mmHg 53%
    16:00 +6°C° 0 mm 0 mps 742 mmHg 57%
    17:00 +5°C° 0 mm 0 mps 742 mmHg 62%
    18:00 +5°C° 0 mm 1 mps 743 mmHg 63%
    19:00 +5°C° 0 mm 1 mps 743 mmHg 65%
    20:00 +4°C° 0 mm 1 mps 743 mmHg 66%
    21:00 +3°C° 0 mm 1 mps 743 mmHg 68%
    22:00 +3°C° 0 mm 1 mps 743 mmHg 69%
    23:00 +3°C° 0 mm 1 mps 743 mmHg 70%

    26 September, Thursday

    Time Temperature Precipitation Wind Pressure Humidity
    00:00 +2°C° 0 mm 2 mps 743 mmHg 71%
    01:00 +1°C° 0 mm 2 mps 743 mmHg 72%
    02:00 +1°C° 0 mm 2 mps 743 mmHg 73%
    03:00 +1°C° 0 mm 2 mps 743 mmHg 72%
    04:00 +1°C° 0 mm 2 mps 743 mmHg 72%
    05:00 +1°C° 0 mm 2 mps 743 mmHg 71%
    06:00 +2°C° 0 mm 2 mps 743 mmHg 68%
    07:00 +3°C° 0 mm 3 mps 743 mmHg 65%
    08:00 +4°C° 0 mm 3 mps 744 mmHg 62%
    09:00 +5°C° 0 mm 3 mps 744 mmHg 59%
    10:00 +6°C° 0 mm 4 mps 744 mmHg 56%
    11:00 +7°C° 0 mm 4 mps 744 mmHg 54%
    12:00 +7°C° 0 mm 4 mps 743 mmHg 53%
    13:00 +8°C° 0 mm 4 mps 743 mmHg 53%
    14:00 +8°C° 0 mm 4 mps 743 mmHg 53%
    15:00 +7°C° 0 mm 4 mps 743 mmHg 57%
    16:00 +7°C° 0 mm 3 mps 742 mmHg 61%
    17:00 +5°C° 0 mm 3 mps 742 mmHg 65%
    18:00 +5°C° 0 mm 3 mps 742 mmHg 63%
    19:00 +5°C° 0 mm 3 mps 742 mmHg 62%
    20:00 +5°C° 0 mm 4 mps 742 mmHg 61%
    21:00 +4°C° 0 mm 4 mps 742 mmHg 61%
    22:00 +4°C° 0 mm 4 mps 742 mmHg 61%
    23:00 +4°C° 0 mm 4 mps 742 mmHg 60%
    Show more